Location: *
(55.6049°S, 142.1985°W)
Time: 09:16:49
(UTC+00:00)

NOSS 3-1 (A) - Pass Details

Date: 12 May 2021
Orbit: 733 x 1479 km, 63.4° (Epoch: 01 May)

Event Time Altitude Azimuth Distance (km) Brightness Sun altitude
Exits shadow 16:06:54 11° 243° (WSW) 2,726 5.2 -9.3°
Maximum altitude 16:11:45 25° 294° (WNW) 1,742 4.5 -8.7°
Drops below altitude 10° 16:16:17 10° 348° (NNW) 2,441 5.7 -8.1°
Sets 16:18:56 0° 1° (N) 3,289 6.6 -7.7°
